Tracking 25709 objects as of 23-May-2022
HD Live streaming from Space Station
objects crossing your sky now

SL-3 R/B

Track SL-3 R/B now!
10-day predictions


NORAD ID: 8800
Int'l Code: 1976-032B
Perigee: 796.8 km
Apogee: 934.8 km
Inclination: 81.3 °
Period: 102.1 minutes
Semi major axis: 7236 km
RCS: 7.6301 m2 (large)
Launch date: April 7, 1976
Source: Commonwealth of Independent States (former USSR) (CIS)
Launch site: PLESETSK MISSILE AND SPACE COMPLEX (PKMTR)

Note: This is a ROCKET BODY
aabbcc
Your satellite tracking list
Your tracking list is empty




NASA's NSSDC Master Catalog

Two Line Element Set (TLE):
1 08800U 76032B   22142.82420261  .00000120  00000-0  57868-4 0  9991
2 08800  81.2503 265.4592 0095346 127.1022 233.8911 14.10195462371755
Source of the keplerian elements: AFSPC